Regional Weather Roundup
Issued by NWS

Home | Current Version | Previous Version | Graphics & Text | Print | Product List | Glossary On
Versions: 1 2 3 4 5 6 7 8 9 10 11 12 13 14 15 16 17 18 19 20 21 22 23 24 25 26 27 28 29 30 31 32 33 34 35 36 37 38 39 40 41 42 43 44 45 46 47 48 49 50
000
ASUS44 KMEG 261800
RWRTN
TENNESSEE HOURLY STATE WEATHER ROUNDUP
NATIONAL WEATHER SERVICE MEMPHIS TN
100 PM CDT FRI MAY 26 2017

TNZ002-004-019-021-049-052-054-088>092-261900-
WEST TENNESSEE

CITY           SKY/WX    TMP DP  RH WIND       PRES   REMARKS
MEMPHIS INTL   MOSUNNY   83  63  50 SW23G32   29.90S
NWS MEMPHIS      N/A     83 N/A N/A MISG        N/A
JACKSON        SUNNY     84  57  39 S16G24    29.89F
DYERSBURG        N/A    N/A N/A N/A MISG        N/A
$$

TNZ008-025-027-028-033-062-065-066-261900-
NORTH MIDDLE TENNESSEE

CITY           SKY/WX    TMP DP  RH WIND       PRES   REMARKS
NASHVILLE      MOSUNNY   83  62  49 S13       29.94F
CLARKSVILLE    SUNNY     81  58  45 S17G23    29.89F
SMYRNA         MOSUNNY   80  65  59 S9        29.95F
CROSSVILLE     CLOUDY    71  57  61 W10       30.06F
$$

TNZ061-075-076-078-094-096-097-261900-
SOUTH MIDDLE TENNESSEE

CITY           SKY/WX    TMP DP  RH WIND       PRES   REMARKS
WINCHESTER     SUNNY     79  63  57 SW8         N/A
$$

TNZ017-018-042-046-047-261900-
NORTHEAST TENNESSEE

CITY           SKY/WX    TMP DP  RH WIND       PRES   REMARKS
TRI CITIES     PTSUNNY   72  53  51 W13G23    30.03S
$$

TNZ012-013-036-069-073-074-261900-
CENTRAL EAST TENNESSEE

CITY           SKY/WX    TMP DP  RH WIND       PRES   REMARKS
KNOXVILLE      PTSUNNY   76  55  48 W14G20    30.04S
OAK RIDGE      MOSUNNY   77  55  46 VRB5      30.03F
GATLINBURG     SUNNY     75  52  43 W9        30.04R
$$

TNZ083-085-099-261900-
SOUTHEAST TENNESSEE

CITY           SKY/WX    TMP DP  RH WIND       PRES   REMARKS
CHATTANOOGA    PTSUNNY   80  58  46 VRB6      30.03F
$$

SKY/WX REPORTED AS FAIR MEANS FEW OR NO CLOUDS BELOW
12 THOUSAND FEET.




USA.gov is the U.S. government's official web portal to all federal, state and local government web resources and services.